Regional Weather Roundup
Issued by NWS

Home | Current Version | Previous Version | Graphics & Text | Print | Product List | Glossary On
Versions: 1 2 3 4 5 6 7 8 9 10 11 12 13 14 15 16 17 18 19 20 21 22 23 24 25 26 27 28 29 30 31 32 33 34 35 36 37 38 39 40 41 42 43 44 45 46 47 48 49 50
000
ASUS43 KDMX 121507
RWRIA

WEATHER ROUNDUP FOR IOWA
NATIONAL WEATHER SERVICE DES MOINES IA
1000 AM CDT SAT JUL 12 2014

NOTE: "FAIR" INDICATES FEW OR NO CLOUDS BELOW 12,000 FEET WITH NO
SIGNIFICANT WEATHER AND/OR OBSTRUCTIONS TO VISIBILITY.

* - THESE STATIONS ARE NOT NWS STATIONS...THUS NOT UNDER NWS
QUALITY CONTROL.  THEY ALSO DO NOT REPORT WEATHER SUCH
AS PRECIPITATION OR FOG.

IAZ001>003-012>014-020>022-031>034-043>046-121600-
   NORTHWEST IOWA

CITY           SKY/WX    TMP DP  RH WIND       PRES   REMARKS
CARROLL *      MOSUNNY   73  70  88 SE8       30.01S
CHEROKEE *     RAIN      72  72 100 CALM      30.00R
DENISON *      SUNNY     73  70  88 SE5       29.99R
LE MARS *      LGT RAIN  70  70 100 VRB6      30.04R
ORANGE CITY *  HVY RAIN  72  68  88 W7        30.06R
SHELDON *      LGT RAIN  70  70 100 NW7       30.03R
SIOUX CITY     LGT RAIN  72  70  93 CALM      30.01R
SPENCER        LGT RAIN  71  69  93 W6        30.02R
STORM LAKE *   MOSUNNY   72  72 100 S6        30.02R
$$

IAZ055>058-069>071-079>083-090>094-121600-
   SOUTHWEST IOWA

CITY           SKY/WX    TMP DP  RH WIND       PRES   REMARKS
ATLANTIC *     SUNNY     75  70  83 E7        30.00F
AUDUBON *      SUNNY     77  72  83 SE8       30.02F
CLARINDA *     SUNNY     82  73  74 S12       30.02F HX  88
COUNCIL BLFS * SUNNY     75  73  94 SE10      29.98F
CRESTON *      SUNNY     77  73  88 SE12      30.02F
HARLAN  *      SUNNY     75  70  83 SE8G18    30.03F
LAMONI         CLOUDY    78  71  79 SE8       30.03F HX  80
RED OAK *      SUNNY     81  73  78 S9        30.00S HX  85
SHENANDOAH *   SUNNY     82  73  74 S9G15     30.00S HX  88
$$

IAZ047>049-059>061-072>074-084-121600-
   CENTRAL IOWA

CITY           SKY/WX    TMP DP  RH WIND       PRES   REMARKS
AMES           CLOUDY    74  70  87 S3        30.01S
ANKENY *         N/A     75  72  88 S8        30.01S
CHARITON *     SUNNY     77  72  83 SE8       30.03F
DES MOINES     CLOUDY    77  72  84 S9        30.01F
GRINNELL*      PTSUNNY   75  72  88 S7        30.02S
KNOXVILLE *    SUNNY     77  72  83 S6        30.01F
MARSHALLTOWN   PTSUNNY   75  71  87 S3        30.00S
PELLA *        PTSUNNY   79  72  78 S3        30.03S HX  82
PERRY *          N/A     75  72  88 S6        30.01S
$$

IAZ004>006-015-016-023>025-035-036-121600-
   NORTH CENTRAL IOWA

CITY           SKY/WX    TMP DP  RH WIND       PRES   REMARKS
ALGONA *       MOSUNNY   72  70  94 CALM      30.01S
CLARION *      SUNNY     72  72 100 CALM      30.01S
ESTHERVILLE    LGT RAIN  71  67  87 N6        29.99F
FORT DODGE *   CLOUDY    72  68  88 CALM      30.01S
MASON CITY     CLOUDY    72  70  93 NE3       30.03S
FOREST CITY *  DRIZZLE   72  72 100 CALM      30.00S
IOWA FALLS *   PTSUNNY   73  68  83 CALM      30.02S
$$

IAZ007>011-017>019-026>030-037>042-050>054-066-121600-
   NORTHEAST IOWA

CITY           SKY/WX    TMP DP  RH WIND       PRES   REMARKS
CEDAR RAPIDS   CLOUDY    74  72  93 SW5       30.00S
CHARLES CITY * CLOUDY    73  70  88 N5        30.02S FOG
CLINTON *      CLOUDY    72  70  94 SW9       30.03R
DECORAH *        N/A    N/A N/A N/A MISG        N/A
DUBUQUE        CLOUDY    74  71  91 N5        29.99S
MONTICELLO *   MOSUNNY   75  73  94 CALM      29.99R
OELWEIN *      MOSUNNY   75  75 100 W6        30.03R
WATERLOO       PTSUNNY   75  71  87 W3        30.00R
$$

IAZ064-065-067-068-078-121600-
   EAST CENTRAL IOWA

CITY           SKY/WX    TMP DP  RH WIND       PRES   REMARKS
DAVENPORT      CLOUDY    75  71  87 SW8       30.03R
IOWA CITY      PTSUNNY   76  73  91 S5        30.02F
MT. PLEASANT * CLOUDY    84  72  65 SW7       30.02S HX  89
MUSCATINE *    MOSUNNY   79  70  73 SW6       30.02S HX  81
QUAD CITIES    CLOUDY    77  71  82 W9        30.02R
$$

IAZ062-063-075>077-085>089-095>099-121600-
   SOUTHEAST IOWA

CITY           SKY/WX    TMP DP  RH WIND       PRES   REMARKS
BURLINGTON     PTSUNNY   82  75  79 SW6       30.02F HX  89
FAIRFIELD *    PTSUNNY   79  73  83 CALM      30.02F HX  82
FORT MADISON * SUNNY     82  75  78 SW6       30.03F HX  89
KEOKUK *       SUNNY     81  75  83 SW7       30.02F HX  86
OSKALOOSA *      N/A     79  72  78 S3        30.02F HX  82
CENTERVILLE *  SUNNY     79  75  89 S3        30.05F HX  82
OTTUMWA        PTSUNNY   79  71  76 CALM      30.02F HX  82
WASHINGTON *   MOSUNNY   77  73  88 S8        30.02F
$$

ABBREVIATIONS USED IN REMARKS
   TC - TEMPERATURES IN CELSIUS
  WCI - WIND CHILL INDEX
   HX - HEAT INDEX
  VSB - VISIBILITY
$$



USA.gov is the U.S. government's official web portal to all federal, state and local government web resources and services.